Regional Weather Roundup
Issued by NWS

Home | Current Version | Previous Version | Graphics & Text | Print | Product List | Glossary On
Versions: 1 2 3 4 5 6 7 8 9 10 11 12 13 14 15 16 17 18 19 20 21 22 23 24 25 26 27 28 29 30 31 32 33 34 35 36 37 38 39 40 41 42 43 44 45 46 47 48 49 50
000
ASUS43 KLOT 291709
RWRIL

ILLINOIS REGIONAL WEATHER ROUNDUP
NATIONAL WEATHER SERVICE CHICAGO/ROMEOVILLE IL
1200 PM CDT MON MAY 29 2017

NOTE: "FAIR" INDICATES FEW OR NO CLOUDS BELOW 12,000 FEET WITH NO
SIGNIFICANT WEATHER AND/OR OBSTRUCTIONS TO VISIBILITY.

* THESE STATIONS ARE NOT UNDER NWS QUALITY CONTROL. THEY ALSO MAY NOT
  REPORT WEATHER SUCH AS PRECIPITATION OR FOG.

ILZ001-002-007-009-015-016-024-291800-
NORTHWEST ILLINOIS

CITY           SKY/WX    TMP DP  RH WIND       PRES   REMARKS
MOLINE         SUNNY     73  46  38 W15G24    29.89R
STERLING*      SUNNY     71  50  47 W16G26    29.87R
SAVANNA*       SUNNY     69  46  43 W15G26    29.87R
$$

ILZ003-004-008-010-011-017-018-291800-
NORTH CENTRAL ILLINOIS

CITY           SKY/WX    TMP DP  RH WIND       PRES   REMARKS
ROCKFORD       MOSUNNY   70  47  43 W16G32    29.85R
FREEPORT*      SUNNY     67  48  50 W18G29    29.87R
ROCHELLE*      SUNNY     70  48  46 W17G28    29.86R
DE KALB*       SUNNY     71  44  37 W24G30    29.86R
PERU*          SUNNY     71  48  43 W20G26    29.88R
$$

ILZ005-006-012>014-019>023-291800-
NORTHEAST ILLINOIS

CITY           SKY/WX    TMP DP  RH WIND       PRES   REMARKS
CHICAGO-OHARE  MOSUNNY   74  46  36 W22G31    29.82R
CHICAGO-MIDWAY MOSUNNY   75  46  35 W22G33    29.83R
AURORA         SUNNY     75  48  38 W17G29    29.85R
LANSING*       MOSUNNY   75  51  43 W16G23    29.85R
JOLIET*        PTSUNNY   76  48  37 W13G22    29.86R
WAUKEGAN       SUNNY     74  44  34 W10G26    29.78R
DUPAGE AIRPORT MOSUNNY   74  49  41 W16G28    29.83R
KANKAKEE*      MOSUNNY   79  47  32 W18G25    29.87S
WHEELING       SUNNY     74  46  36 W18G29    29.81S
MORRIS*        MOSUNNY   74  45  35 W21G26    29.85S
ROMEOVILLE*    PTSUNNY   75  52  44 W21G26    29.85R
NORTHERLY ISL    N/A     74  41  30 SW15        N/A
$$

LMZ740>746-291800-
SOUTHERN LAKE MICHIGAN

STATION/POSITION SKY/WX   TEMP    WIND        PRES    VSBY  WAVE
                          AIR SEA DIR/SP/G                  HT/PER
                          (F)     (DEG/KT/KT) (MB)    (MI)  (FT/S)
SOUTHERN BUOY              52 47  230/ 10/ 10 1008.6          1
WILMETTE HARBOR            67 56  240/ 16/ 25   N/A           2/ 2
HARRISON CRIB              73     250/ 24/ 31   N/A
BURNHAM HARBOR             73     310/ 10/ 17   N/A
CALUMET HARBOR             74     220/ 11/ 18 1009.7R
BURNS HARBOR               67     260/ 12/ 15 1010.8S
MICHIGAN CITY              65     240/ 13/ 15   N/A
MICHIGAN CITY 6N           62 56  250/  8/ 10   N/A           1
ST. JOSEPH                 62 59  250/ 10/ 12 1010.3          1/ 3
$$

ILZ025>027-034>036-040-047-049-050-058-095>099-291800-
WEST-CENTRAL ILLINOIS

CITY           SKY/WX    TMP DP  RH WIND       PRES   REMARKS
QUINCY         PTSUNNY   74  50  42 W14       29.94S
GALESBURG*     SUNNY     73  44  34 W18G25    29.91S
MACOMB*        MOSUNNY   73  46  38 W10G18    29.95S
JACKSONVILLE*  SUNNY     77  54  45 W12       29.93S
PITTSFIELD*    MOSUNNY   78  53  41 W9        29.95S
$$

ILZ028>032-037-038-041>044-048-051>054-059>061-291800-
CENTRAL ILLINOIS

CITY           SKY/WX    TMP DP  RH WIND       PRES   REMARKS
PONTIAC        CLOUDY    75  47  36 W21       29.89S
BLOOMINGTON    SUNNY     77  46  33 W14G24    29.91S
DECATUR        SUNNY     79  46  31 W15G23    29.92R
PEORIA         MOSUNNY   74  48  39 NW12      29.91R
LACON*         MOSUNNY   75  49  40 W15       29.89R
LINCOLN*       SUNNY     79  49  34 W7        29.92S
SPRINGFIELD    SUNNY     81  53  37 W12G21    29.93R HX  80
TAYLORVILLE    SUNNY     81  47  30 W14G20    29.94S HX  80
$$

ILZ033-039-045-046-055>057-062-063-291800-
EAST-CENTRAL ILLINOIS

CITY           SKY/WX    TMP DP  RH WIND       PRES   REMARKS
CHAMPAIGN      SUNNY     83  43  24 SW18      29.91R HX  81
RANTOUL*       SUNNY     82  47  29 W16G24    29.90R HX  81
MATTOON        SUNNY     78  54  43 VRB7      29.93R
PARIS*         SUNNY     79  55  42 SW8       29.92S HX  80
$$

ILZ079-100>102-291800-
SOUTHWEST ILLINOIS

CITY           SKY/WX    TMP DP  RH WIND       PRES   REMARKS
ALTON          MOSUNNY   77  55  47 SW12      29.96S
BELLEVILLE     SUNNY     80  51  35 W6        29.96F HX  80
CAHOKIA*       SUNNY     82  50  32 SW8       29.95F HX  81
SPARTA*        SUNNY     79  52  38 SW7       29.98F
$$

ILZ064>066-069>071-074>076-080>082-084>086-088>090-092>094-291800-
SOUTH-CENTRAL ILLINOIS

CITY           SKY/WX    TMP DP  RH WIND       PRES   REMARKS
CARBONDALE     SUNNY     81  56  42 W13       29.98R HX  81
CAIRO*         SUNNY     79  63  57 SW6       30.00F HX  80
EFFINGHAM*     SUNNY     78  61  55 SW9       29.96S HX  80
MARION         SUNNY     81  57  44 SW6       29.99R HX  81
MT. VERNON       N/A     80  55  42 VRB6      29.96S HX  80
CENTRALIA*     SUNNY     79  58  47 W8        29.95F HX  80
SALEM*         SUNNY     80  54  39 SW7       29.96S HX  80
METROPOLIS*    SUNNY     81  60  49 W7        30.01S HX  82
$$

ILZ067-068-072-073-078-083-087-091-291800-
SOUTHEAST ILLINOIS

CITY           SKY/WX    TMP DP  RH WIND       PRES   REMARKS
LAWRENCEVILLE  SUNNY     83  53  35 SW13G22   29.94S HX  82
FLORA*         SUNNY     82  53  36 W14G21    29.95S HX  81
FAIRFIELD*     SUNNY     80  55  42 SW9       29.95S HX  80
HARRISBURG*    SUNNY     82  58  43 SW13      29.98S HX  82
ROBINSON*      SUNNY     81  56  42 SW14      29.94S HX  81
CARMI*         SUNNY     83  56  39 SW7G16    29.95F HX  82
$$

ABBREVIATIONS USED IN REMARKS
   TC - TEMPERATURE IN CELSIUS
  WCI - WIND CHILL INDEX
   HX - HEAT INDEX
  VSB - VISIBILITY
$$





USA.gov is the U.S. government's official web portal to all federal, state and local government web resources and services.